Regional Weather Roundup
Issued by NWS

Home | Current Version | Previous Version | Text Only | Print | Product List | Glossary On
Versions: 1 2 3 4 5 6 7 8 9 10 11 12 13 14 15 16 17 18 19 20 21 22 23 24 25 26 27 28 29 30 31 32 33 34 35 36 37 38 39 40 41 42 43 44 45 46 47 48 49 50
000
ASUS46 KSTO 200815
RWRCA

NORTHERN AND CENTRAL CA REGIONAL WEATHER ROUNDUP
NATIONAL WEATHER SERVICE SACRAMENTO CA
1200 AM PST MON NOV 20 2017

NOTE: FAIR INDICATES FEW OR NO CLOUDS BELOW 12,000 FEET WITH NO
SIGNIFICANT WEATHER AND/OR OBSTRUCTIONS TO VISIBILITY.

CAZ001-003-200900-
NORTHWEST AREA

CITY           SKY/WX    TMP DP  RH WIND       PRES   REMARKS
CRESCENT CITY  CLOUDY    54  51  90 S22G30    29.88F
UKIAH          LGT RAIN  50  47  89 NW3       30.09R FOG
$$

CAZ006-505>513-200900-
BAY AREA

CITY           SKY/WX    TMP DP  RH WIND       PRES   REMARKS
SANTA ROSA     CLOUDY    51  50  96 N6        30.08R
SAN RAFAEL     N/A       54  MM  MM MISG
NAPA           CLOUDY    54  46  74 N5        30.09S
CONCORD        CLOUDY    56  48  74 CALM      30.08F
OAKLAND CITY   N/A      MM  MM  MM MISG
OAKLAND        CLOUDY    55  50  83 E5        30.08F
SAN FRAN CITY  N/A       57  MM  72 MISG
SAN FRAN ARPT  CLOUDY    58  47  66 CALM      30.07F
LIVERMORE      CLOUDY    53  47  79 CALM      30.08S
HAYWARD        CLOUDY    57  45  64 E3        30.07F
REDWOOD CITY   N/A       54  MM  82 MISG
MOFFETT ARPT   CLOUDY    56  49  77 E3        30.08S
SAN JOSE ARPT  CLOUDY    57  47  69 CALM      30.07F
$$
CAZ034-037-514>518-200900-
CENTRAL COAST

CITY           SKY/WX    TMP DP  RH WIND       PRES   REMARKS
WATSONVILLE    CLOUDY    54  53  97 CALM      30.07F
SALINAS        CLOUDY    53  48  83 E10       30.06F
MONTEREY       CLOUDY    56  43  61 CALM      30.07F
SAN LUIS OBISP CLOUDY    49  44  83 E5        30.07F
SANTA MARIA    MOCLDY    48  46  93 E10       30.07F
$$
CAZ015-016-200900-
NORTHERN SACRAMENTO VALLEY

CITY           SKY/WX    TMP DP  RH WIND       PRES   REMARKS
REDDING        CLOUDY    49  45  86 CALM      30.08S
RED BLUFF      CLOUDY    49  47  93 NW3       30.10S
OROVILLE       CLOUDY    54  48  80 CALM      30.09F
$$
CAZ016>018-200900-
SOUTHERN SACRAMENTO VALLEY

CITY           SKY/WX    TMP DP  RH WIND       PRES   REMARKS
AUBURN         CLOUDY    54  43  66 SE5       30.08F
BEALE AFB      DRIZZLE   52  49  88 W5        30.07R
LINCOLN        PTSUNNY   52  46  82 W5        30.08R
MARYSVILLE     CLOUDY    52  49  89 W3        30.09S
SAC INTL ARPT  CLOUDY    55  48  77 S6        30.08S
MATHER AIRPORT NOT AVBL
DOWNTOWN SAC   N/A       53  MM  MM MISG
SAC EXEC ARPT  CLOUDY    53  48  83 CALM      30.09S
VACAVILLE      CLOUDY    53  46  77 CALM      30.10S
TRAVIS AFB     CLOUDY    52  49  91 CALM      30.07S
$$
CAZ019>021-200900-
SAN JOAQUIN VALLEY

CITY           SKY/WX    TMP DP  RH WIND       PRES   REMARKS
STOCKTON       CLOUDY    52  49  89 S5        30.08F
MODESTO        CLOUDY    53  49  86 CALM      30.09S
MERCED         CLOUDY    50  46  86 CALM      30.11R FOG
LEMOORE        PTCLDY   N/A N/A N/A W3        30.13S
FRESNO         PTCLDY    48  45  89 E3        30.13S
HANFORD        PTCLDY    47  45  93 CALM      30.14S FOG
PORTERVILLE    PTCLDY    44  42  93 CALM      30.14R
BAKERSFIELD    PTCLDY    48  40  73 E3        30.12R
$$
CAZ011-012-071-200900-
NORTHERN MOUNTAINS

CITY           SKY/WX    TMP DP  RH WIND       PRES   REMARKS
YREKA          LGT RAIN  37  34  89 N12       29.99S WCI  29
MOUNT SHASTA   CLOUDY    44  32  62 VRB3      30.04S
ALTURAS        CLOUDY    38  32  79 N3        30.03F
$$
CAZ011-012-071-200900-
SIERRA NEVADA MTNS

CITY           SKY/WX    TMP DP  RH WIND       PRES   REMARKS
BLUE CANYON    CLOUDY    45  24  43 E6        30.15F
TRUCKEE        CLOUDY    43  14  31 S6        30.15F
TAHOE VLY ARPT CLOUDY    39  15  37 SW3       30.17R
MAMMOTH LAKES  FAIR      38  12  35 CALM      30.17F
$$




USA.gov is the U.S. government's official web portal to all federal, state and local government web resources and services.